Location: Hall+in+Tirol
(47.2830°N, 11.5170°E)
Time: 04:22:59
(UTC+02:00)

Amateur Radio Satellites - All Passes

Search period start: 05 August 2015 03:52
Search period end: 06 August 2015 03:52
Location: Hall+in+Tirol, 47.2830°N, 11.5170°E

Satellite Date Start Highest point End Downlink Frequencies (MHz)
Time Altitude Azimuth
MOZHAYETS 4 05 Aug 04:05:50 04:10:04 36° 68° (ENE) 04:14:20
AO-7 05 Aug 04:10:35 04:17:14 27° 91° (E) 04:24:05 29.400- 29.500
KKS-1 05 Aug 04:23:42 04:27:16 23° 267° (W) 04:30:45 437.445
ITAMSAT 1 05 Aug 04:29:04 04:34:09 55° 290° (WNW) 04:39:10 435.822/435.867
Gurwin Techsat 1B 05 Aug 04:30:37 04:35:45 49° 291° (WNW) 04:40:49 435.225
Cosmos 2504 05 Aug 04:36:24 04:43:01 33° 295° (WNW) 04:49:57 435.465 / 435.565
Oscar 19 05 Aug 04:39:46 04:42:55 16° 303° (WNW) 04:45:53 437.125/150
JAS-2 05 Aug 04:42:52 04:50:48 86° 104° (ESE) 04:58:32 435.910
CUSAT 1 05 Aug 05:01:26 05:03:53 33° 286° (WNW) 05:06:19 437.405
GONETS M04 05 Aug 05:09:20 05:16:13 29° 82° (E) 05:23:22
DANDE 05 Aug 05:10:29 05:13:15 48° 283° (WNW) 05:15:48 436.750
HORYU 2 05 Aug 05:17:19 05:21:51 76° 103° (ESE) 05:26:21 437.375
BEESAT 2 05 Aug 05:24:27 05:25:04 10° 21° (NNE) 05:25:46 435.950
MOZHAYETS 4 05 Aug 05:43:18 05:47:21 28° 266° (W) 05:51:22
BEESAT 3 05 Aug 05:57:00 05:59:39 17° 31° (NNE) 06:02:21 437.485
RS-15 05 Aug 05:57:09 06:08:54 80° 50° (NE) 06:21:09 29.354- 29.394
Cosmos 2499 05 Aug 06:01:10 06:03:32 12° 71° (ENE) 06:06:28 435.465 / 435.565
AO-7 05 Aug 06:02:36 06:10:58 77° 292° (WNW) 06:19:14 29.400- 29.500
CUBESAT XI-V 05 Aug 06:10:54 06:15:29 59° 72° (ENE) 06:20:05 437.345
CUTE-I 05 Aug 06:27:22 06:30:48 18° 88° (E) 06:34:23 437.470
JAS-2 05 Aug 06:28:46 06:35:02 27° 304° (WNW) 06:41:06 435.910
STRAND 1 05 Aug 06:42:27 06:47:16 43° 68° (ENE) 06:52:08 437.568
HORYU 2 05 Aug 06:55:20 06:57:57 15° 301° (WNW) 07:00:26 437.375
BEESAT 2 05 Aug 07:00:30 07:04:19 36° 43° (NE) 07:08:05 435.950
GONETS M04 05 Aug 07:03:44 07:12:25 71° 283° (WNW) 07:21:08
PRISM 05 Aug 07:05:13 07:09:16 52° 72° (ENE) 07:13:21 437.425
Cubesat XI-IV 05 Aug 07:11:40 07:16:42 41° 97° (E) 07:21:44 437.490
AIST 2 05 Aug 07:23:51 07:27:03 21° 35° (NE) 07:30:17 435.215
BEESAT 3 05 Aug 07:34:08 07:38:13 86° 51° (NE) 07:42:14 437.485
Cosmos 2499 05 Aug 07:47:33 07:54:57 62° 93° (E) 08:03:02 435.465 / 435.565
CUBESAT XI-V 05 Aug 07:50:09 07:53:21 18° 271° (W) 07:56:25 437.345
PCSat 05 Aug 07:53:07 07:56:36 18° 107° (ESE) 08:00:16 145.827
AO-7 05 Aug 07:56:30 08:02:38 23° 314° (NW) 08:08:31 29.400- 29.500
CUTE-I 05 Aug 08:06:11 08:11:30 71° 288° (WNW) 08:16:47 437.470
GOMX 1 05 Aug 08:06:15 08:08:23 13° 87° (E) 08:10:49 467.674
RS-15 05 Aug 08:10:17 08:20:34 35° 252° (WSW) 08:30:49 29.354- 29.394
AUBIESAT-1 05 Aug 08:12:20 08:14:18 13° 51° (NE) 08:16:29 437.475
BRITE-PL 05 Aug 08:15:44 08:19:26 25° 94° (E) 08:23:25 437.365/2234.400
STRAND 1 05 Aug 08:22:13 08:26:40 28° 266° (W) 08:31:02 437.568
SO-50 05 Aug 08:33:50 08:37:56 30° 116° (ESE) 08:42:14 436.795
BEESAT 2 05 Aug 08:38:42 08:42:17 30° 243° (WSW) 08:45:48 435.950
PRISM 05 Aug 08:42:17 08:45:03 17° 270° (W) 08:47:41 437.425
CINEMA 3 05 Aug 08:50:57 08:52:02 11° 84° (E) 08:53:26 145.822/145.860
Cubesat XI-IV 05 Aug 08:52:02 08:56:43 32° 296° (WNW) 09:01:19 437.490
HO-68 05 Aug 08:59:15 09:05:18 29° 92° (E) 09:11:29 435.675
AIST 2 05 Aug 09:01:53 09:06:05 72° 235° (SW) 09:10:12 435.215
COMPASS 1 05 Aug 09:03:13 09:05:18 14° 87° (E) 09:07:33 437.405
GONETS M04 05 Aug 09:05:34 09:11:17 18° 308° (NW) 09:16:39
DOVE 4 05 Aug 09:10:17 09:14:33 34° 96° (E) 09:19:04 437.250
BEESAT 3 05 Aug 09:14:12 09:15:34 11° 250° (WSW) 09:16:44 437.485
M-CUBED/EXP-1 PRIME 05 Aug 09:18:58 09:23:07 53° 65° (ENE) 09:27:37 437.505
TIGRISAT 05 Aug 09:19:07 09:20:39 12° 57° (ENE) 09:22:23 435.000
ANTELSAT 05 Aug 09:22:17 09:24:17 13° 58° (ENE) 09:26:30 437.575/2403.000
SEEDS 05 Aug 09:24:14 09:27:55 28° 94° (E) 09:31:36 437.485
CUTE 1.7 + AOD 2 05 Aug 09:33:50 09:37:57 43° 98° (E) 09:42:02 437.475
PCSat 05 Aug 09:34:02 09:39:28 78° 306° (NW) 09:44:56 145.827
AAUSAT CUBESAT 2 05 Aug 09:39:43 09:43:19 27° 94° (E) 09:46:56 437.432
Cosmos 2499 05 Aug 09:41:59 09:48:47 32° 297° (WNW) 09:55:57 435.465 / 435.565
GOMX 1 05 Aug 09:42:29 09:47:04 79° 285° (WNW) 09:51:59 467.674
CANX-2 05 Aug 09:42:49 09:47:06 59° 100° (E) 09:51:19 2200.000
AUBIESAT-1 05 Aug 09:43:59 09:48:15 81° 69° (ENE) 09:52:50 437.475
CUTE-I 05 Aug 09:48:21 09:50:45 13° 306° (NW) 09:52:56 437.470
FUNcube-1 05 Aug 09:50:48 09:52:22 12° 85° (E) 09:54:12 145.935
BRITE-PL 05 Aug 09:53:58 09:58:06 38° 290° (WNW) 10:02:27 437.365/2234.400
Oscar 11 05 Aug 09:54:54 09:58:00 19° 90° (E) 10:01:12 145.826/435.025
DUCHIFAT 1 05 Aug 10:02:53 10:04:22 12° 59° (ENE) 10:06:01 145.980
UWE-3 05 Aug 10:03:14 10:06:44 21° 91° (E) 10:10:21 435.000/436.395/437.385
O/OREOS (USA 219) 05 Aug 10:07:33 10:11:41 32° 55° (NE) 10:15:51 437.305
NANOSAT C BR1 05 Aug 10:08:19 10:10:23 14° 60° (ENE) 10:12:37 145.865
QB50P1 05 Aug 10:08:49 10:10:58 14° 61° (ENE) 10:13:17 145.935-145.965
UNISAT 6 05 Aug 10:11:17 10:15:17 35° 68° (ENE) 10:19:26 437.425
SO-50 05 Aug 10:13:40 10:18:20 47° 316° (NW) 10:23:08 436.795
CINEMA 3 05 Aug 10:25:14 10:30:00 83° 105° (ESE) 10:34:56 145.822/145.860
CUBEBUG 2 05 Aug 10:27:18 10:31:46 44° 98° (E) 10:36:19 437.445
DELFI C3 05 Aug 10:30:31 10:34:03 29° 95° (E) 10:37:36 145.870
YUBILEINY 05 Aug 10:31:27 10:39:22 36° 65° (ENE) 10:47:23 435.215
COMPASS 1 05 Aug 10:37:15 10:41:28 64° 286° (WNW) 10:45:37 437.405
HO-68 05 Aug 10:46:28 10:53:34 63° 293° (WNW) 11:00:38 435.675
DOVE 4 05 Aug 10:48:08 10:52:16 32° 292° (WNW) 10:56:34 437.250
BUGSAT 1 05 Aug 10:49:09 10:52:09 21° 65° (ENE) 10:55:15 437.445
POLYITAN 1 05 Aug 10:52:16 10:56:06 36° 69° (ENE) 11:00:01 437.675
TIGRISAT 05 Aug 10:52:18 10:56:41 84° 75° (ENE) 11:01:14 435.000
M-CUBED/EXP-1 PRIME 05 Aug 10:55:12 10:58:17 19° 266° (W) 11:01:27 437.505
ANTELSAT 05 Aug 10:56:00 11:00:25 86° 255° (WSW) 11:05:00 437.575/2403.000
AIST 1 05 Aug 10:58:40 11:00:19 12° 84° (E) 11:02:09
SEEDS 05 Aug 10:59:55 11:03:43 31° 292° (WNW) 11:07:26 437.485
VELOX 1 05 Aug 11:04:14 11:05:11 11° 86° (E) 11:06:23 145.980
ZACube-1 05 Aug 11:05:06 11:09:40 64° 101° (E) 11:14:15 437.345
POPSAT HIP 1 05 Aug 11:07:15 11:11:19 50° 71° (ENE) 11:15:25 437.405
CUTE 1.7 + AOD 2 05 Aug 11:10:17 11:13:37 22° 295° (WNW) 11:16:52 437.475
Cosmos 2491 05 Aug 11:12:42 11:19:20 26° 81° (E) 11:26:13 435.465 / 435.565
AAUSAT CUBESAT 2 05 Aug 11:15:11 11:18:56 31° 292° (WNW) 11:22:36 437.432
QB50P2 05 Aug 11:15:58 11:20:08 64° 73° (ENE) 11:24:20 145.880/145.840
HUMSAT D 05 Aug 11:16:01 11:20:01 35° 96° (E) 11:24:01 437.325/437.525
CANX-2 05 Aug 11:19:47 11:22:36 17° 298° (WNW) 11:25:18 2200.000
PCSat 05 Aug 11:19:48 11:23:48 20° 327° (NNW) 11:27:43 145.827
AUBIESAT-1 05 Aug 11:21:45 11:23:41 12° 270° (W) 11:25:27 437.475
GOMX 1 05 Aug 11:23:03 11:24:38 11° 301° (WNW) 11:26:03 467.674
FUNcube-1 05 Aug 11:24:47 11:29:23 85° 284° (WNW) 11:33:58 145.935
50 SAT 05 Aug 11:30:02 11:33:11 23° 93° (E) 11:36:23 437.505
Oscar 11 05 Aug 11:30:15 11:34:28 47° 289° (WNW) 11:38:39 145.826/435.025
ESTCUBE 1 05 Aug 11:31:56 11:34:37 16° 88° (E) 11:37:28 437.505/2401.250
UKube-1 05 Aug 11:32:10 11:35:58 30° 95° (E) 11:39:49 .
DUCHIFAT 1 05 Aug 11:35:23 11:39:34 86° 253° (WSW) 11:43:48 145.980
UWE-3 05 Aug 11:39:03 11:43:31 49° 289° (WNW) 11:48:01 435.000/436.395/437.385
NANOSAT C BR1 05 Aug 11:41:31 11:45:42 72° 257° (WSW) 11:49:56 145.865
QB50P1 05 Aug 11:42:09 11:46:21 70° 258° (WSW) 11:50:34 145.935-145.965
O/OREOS (USA 219) 05 Aug 11:46:59 11:51:07 33° 254° (WSW) 11:55:12 437.305
UNISAT 6 05 Aug 11:48:21 11:52:09 27° 267° (W) 11:55:59 437.425
SO-50 05 Aug 11:57:09 12:00:06 15° 338° (NNW) 12:03:00 436.795
AISAT 05 Aug 12:00:29 12:04:40 41° 98° (E) 12:08:53 437.250
CUBEBUG 1 05 Aug 12:01:04 12:04:38 25° 93° (E) 12:08:15 437.445
CINEMA 3 05 Aug 12:03:57 12:06:40 15° 299° (WNW) 12:09:16 145.822/145.860
CUBEBUG 2 05 Aug 12:04:25 12:08:14 25° 295° (WNW) 12:12:02 437.445
DELFI C3 05 Aug 12:05:34 12:09:05 28° 293° (WNW) 12:12:31 145.870
DX 1 05 Aug 12:06:52 12:11:14 76° 104° (ESE) 12:15:34 434.975-435.025
SPROUT 05 Aug 12:20:57 12:22:55 13° 87° (E) 12:25:06 437.525
BUGSAT 1 05 Aug 12:23:38 12:27:25 39° 262° (W) 12:31:13 437.445
Cosmos 2504 05 Aug 12:25:14 12:31:51 26° 60° (ENE) 12:38:50 435.465 / 435.565
YUBILEINY 05 Aug 12:28:07 12:36:47 61° 268° (W) 12:45:22 435.215
POLYITAN 1 05 Aug 12:28:41 12:32:08 24° 267° (W) 12:35:32 437.675
TIGRISAT 05 Aug 12:32:44 12:34:12 11° 275° (W) 12:35:26 435.000
AIST 1 05 Aug 12:33:06 12:37:26 70° 281° (W) 12:41:45
HO-68 05 Aug 12:35:53 12:40:05 16° 313° (NW) 12:44:02 435.675
VELOX 1 05 Aug 12:38:00 12:42:27 86° 285° (WNW) 12:46:52 145.980
Oscar 19 05 Aug 12:40:57 12:45:07 27° 63° (ENE) 12:49:24 437.125/150
ZACube-1 05 Aug 12:42:31 12:45:35 18° 298° (WNW) 12:48:33 437.345
POPSAT HIP 1 05 Aug 12:44:39 12:47:30 17° 270° (W) 12:50:15 437.405
HUMSAT D 05 Aug 12:51:59 12:55:37 26° 294° (WNW) 12:59:13 437.325/437.525
QB50P2 05 Aug 12:54:17 12:56:31 14° 272° (W) 12:58:35 145.880/145.840
FUNcube-1 05 Aug 13:03:06 13:05:02 12° 301° (WNW) 13:06:48 145.935
50 SAT 05 Aug 13:04:11 13:07:50 34° 291° (WNW) 13:11:25 437.505
Cosmos 2491 05 Aug 13:06:37 13:15:24 77° 281° (WNW) 13:24:11 435.465 / 435.565
ESTCUBE 1 05 Aug 13:07:30 13:11:58 61° 288° (WNW) 13:16:22 437.505/2401.250
UKube-1 05 Aug 13:08:17 13:12:05 30° 293° (WNW) 13:15:49 .
JAS-2 05 Aug 13:17:29 13:20:33 14° 46° (NE) 13:24:03 435.910
AO-7 05 Aug 13:25:24 13:29:32 15° 38° (NE) 13:33:58 29.400- 29.500
CUBEBUG 1 05 Aug 13:37:06 13:41:05 36° 292° (WNW) 13:45:03 437.445
AISAT 05 Aug 13:37:29 13:41:03 24° 296° (WNW) 13:44:32 437.250
SWISSCUBE 05 Aug 13:41:26 13:42:51 11° 85° (E) 13:44:32 437.505
SO-50 05 Aug 13:41:46 13:42:43 10° 3° (N) 13:43:41 436.795
DX 1 05 Aug 13:44:35 13:46:57 14° 300° (WNW) 13:49:10 434.975-435.025
CUSAT 1 05 Aug 13:49:01 13:51:55 17° 68° (ENE) 13:55:31 437.405
TISAT 1 05 Aug 13:49:04 13:53:16 64° 101° (ESE) 13:57:28 437.305
SPROUT 05 Aug 13:55:15 13:59:33 69° 287° (WNW) 14:03:50 437.525
DANDE 05 Aug 14:02:06 14:03:52 13° 67° (ENE) 14:06:04 436.750
ITUPSAT 1 05 Aug 14:03:21 14:06:25 17° 89° (E) 14:09:38 437.325
ITAMSAT 1 05 Aug 14:11:01 14:15:58 46° 68° (ENE) 14:20:57 435.822/435.867
Gurwin Techsat 1B 05 Aug 14:15:04 14:20:13 55° 70° (ENE) 14:25:27 435.225
VELOX 1 05 Aug 14:16:39 14:18:21 12° 302° (WNW) 14:19:53 145.980
Cosmos 2504 05 Aug 14:16:43 14:25:13 85° 263° (W) 14:33:52 435.465 / 435.565
Oscar 19 05 Aug 14:19:20 14:24:17 48° 262° (W) 14:29:15 437.125/150
YUBILEINY 05 Aug 14:28:19 14:31:53 13° 289° (WNW) 14:34:51 435.215
HORYU 2 05 Aug 14:44:32 14:46:47 14° 59° (ENE) 14:49:11 437.375
PCSat 05 Aug 14:53:33 14:55:33 12° 19° (NNE) 14:57:39 145.827
BEESAT 05 Aug 14:55:28 15:00:09 53° 100° (E) 15:04:49 436.000
JAS-2 05 Aug 14:57:46 15:04:01 55° 67° (ENE) 15:11:07 435.910
Cosmos 2491 05 Aug 15:07:54 15:14:06 20° 307° (NW) 15:19:55 435.465 / 435.565
AO-7 05 Aug 15:12:36 15:20:31 50° 61° (ENE) 15:28:30 29.400- 29.500
GONETS M04 05 Aug 15:14:26 15:19:44 18° 51° (NE) 15:25:25
SWISSCUBE 05 Aug 15:16:42 15:21:31 89° 123° (ESE) 15:26:17 437.505
SO-50 05 Aug 15:21:48 15:25:14 18° 27° (NNE) 15:28:43 436.795
TISAT 1 05 Aug 15:26:03 15:28:37 15° 298° (WNW) 15:31:02 437.305
CUSAT 1 05 Aug 15:30:14 15:34:36 63° 261° (W) 15:40:25 437.405
STARS 05 Aug 15:33:16 15:35:40 15° 88° (E) 15:38:15 437.465
ITUPSAT 1 05 Aug 15:40:03 15:44:48 62° 288° (WNW) 15:49:30 437.325
DANDE 05 Aug 15:43:11 15:47:08 70° 260° (W) 15:52:28 436.750
ITAMSAT 1 05 Aug 15:51:17 15:55:42 27° 267° (W) 16:00:04 435.822/435.867
Gurwin Techsat 1B 05 Aug 15:56:22 16:00:36 23° 269° (W) 16:04:44 435.225
KKS-1 05 Aug 16:10:20 16:14:44 54° 100° (E) 16:19:08 437.445
Cosmos 2504 05 Aug 16:10:29 16:16:23 20° 282° (WNW) 16:22:00 435.465 / 435.565
HORYU 2 05 Aug 16:18:23 16:22:51 81° 257° (WSW) 16:27:22 437.375
BEESAT 05 Aug 16:34:00 16:37:41 22° 298° (WNW) 16:41:15 436.000
PCSat 05 Aug 16:35:48 16:40:43 34° 43° (NE) 16:45:39 145.827
JAS-2 05 Aug 16:43:45 16:49:30 33° 270° (W) 16:55:48 435.910
SWISSCUBE 05 Aug 16:56:13 16:58:44 14° 302° (WNW) 17:01:04 437.505
Cubesat XI-IV 05 Aug 16:59:35 17:02:43 16° 57° (ENE) 17:06:02 437.490
SO-50 05 Aug 17:01:46 17:06:44 66° 49° (NE) 17:11:36 436.795
AO-7 05 Aug 17:05:29 17:13:27 45° 261° (W) 17:21:23 29.400- 29.500
STARS 05 Aug 17:08:13 17:12:37 65° 287° (WNW) 17:17:00 437.465
GONETS M04 05 Aug 17:09:55 17:18:39 70° 77° (ENE) 17:27:23
Cosmos 2499 05 Aug 17:34:16 17:41:44 31° 62° (ENE) 17:49:28 435.465 / 435.565
MOZHAYETS 4 05 Aug 17:34:25 17:38:58 54° 100° (E) 17:43:29
VERMONT LUNAR 05 Aug 17:45:15 17:47:26 17° 165° (SSE) 17:49:39 437.305
KKS-1 05 Aug 17:47:47 17:51:02 20° 298° (WNW) 17:54:10 437.445
CUTE-I 05 Aug 17:51:48 17:56:44 40° 67° (ENE) 18:01:43 437.470
CUBESAT XI-V 05 Aug 18:06:38 18:08:02 11° 85° (E) 18:09:43 437.345
PCSat 05 Aug 18:19:07 18:24:21 49° 244° (WSW) 18:29:32 145.827
Cubesat XI-IV 05 Aug 18:36:47 18:42:10 90° 229° (SW) 18:47:35 437.490
SO-50 05 Aug 18:43:09 18:46:52 21° 247° (WSW) 18:50:25 436.795
STRAND 1 05 Aug 18:52:31 18:53:24 11° 84° (E) 18:54:38 437.568
GONETS M04 05 Aug 19:07:39 19:14:52 29° 278° (W) 19:21:53
MOZHAYETS 4 05 Aug 19:12:26 19:15:51 20° 297° (WNW) 19:19:08
PHONESAT 2.4 05 Aug 19:16:16 19:18:32 16° 161° (SSE) 19:20:51 2401.200-2431.200
GOMX 1 05 Aug 19:17:59 19:20:45 18° 63° (ENE) 19:23:38 467.674
VERMONT LUNAR 05 Aug 19:20:57 19:23:35 24° 181° (S) 19:26:13 437.305
Cosmos 2499 05 Aug 19:27:00 19:35:47 73° 265° (W) 19:44:35 435.465 / 435.565
BRITE-PL 05 Aug 19:30:14 19:34:08 37° 70° (ENE) 19:38:00 437.365/2234.400
HO-68 05 Aug 19:31:29 19:37:34 32° 58° (ENE) 19:43:48 435.675
CUTE-I 05 Aug 19:32:05 19:36:55 33° 265° (W) 19:41:41 437.470
CUBESAT XI-V 05 Aug 19:41:36 19:46:14 86° 289° (WNW) 19:50:50 437.345
CINEMA 3 05 Aug 19:55:56 19:57:55 13° 59° (ENE) 20:00:06 145.822/145.860
COMPASS 1 05 Aug 19:57:36 20:00:03 16° 62° (ENE) 20:02:39 437.405
ISS 05 Aug 20:04:02 20:06:50 27° 142° (SE) 20:09:40 145.825
SEEDS 05 Aug 20:19:11 20:22:54 30° 68° (ENE) 20:26:40 437.485
PRISM 05 Aug 20:19:31 20:23:33 54° 101° (E) 20:27:34 437.425
DOVE 4 05 Aug 20:19:31 20:23:26 44° 71° (ENE) 20:27:28 437.250
Cubesat XI-IV 05 Aug 20:20:21 20:23:08 14° 275° (W) 20:25:38 437.490
RS-15 05 Aug 20:26:07 20:35:19 35° 107° (ESE) 20:45:04 29.354- 29.394
STRAND 1 05 Aug 20:28:28 20:33:37 78° 105° (ESE) 20:38:42 437.568
CUTE 1.7 + AOD 2 05 Aug 20:29:28 20:33:34 46° 71° (ENE) 20:37:43 437.475
AAUSAT CUBESAT 2 05 Aug 20:33:24 20:37:00 29° 67° (ENE) 20:40:40 437.432
CANX-2 05 Aug 20:38:28 20:42:42 63° 74° (ENE) 20:46:59 2200.000
FUNcube-1 05 Aug 20:49:46 20:51:56 14° 60° (ENE) 20:54:17 145.935
Oscar 11 05 Aug 20:52:43 20:56:06 23° 65° (ENE) 20:59:36 145.826/435.025
PHONESAT 2.4 05 Aug 20:52:54 20:55:55 27° 177° (S) 20:58:55 2401.200-2431.200
GOMX 1 05 Aug 20:54:35 20:58:37 48° 261° (W) 21:02:40 467.674
VERMONT LUNAR 05 Aug 20:57:46 20:59:43 15° 198° (SSW) 21:01:38 437.305
UWE-3 05 Aug 21:03:43 21:07:06 24° 65° (ENE) 21:10:39 435.000/436.395/437.385
BRITE-PL 05 Aug 21:09:34 21:12:53 21° 268° (W) 21:16:03 437.365/2234.400
Cosmos 2491 05 Aug 21:17:48 21:22:35 16° 49° (NE) 21:27:48 435.465 / 435.565
HO-68 05 Aug 21:17:53 21:24:57 62° 258° (WSW) 21:32:04 435.675
DELFI C3 05 Aug 21:20:36 21:24:03 28° 68° (ENE) 21:27:35 145.870
CUBESAT XI-V 05 Aug 21:21:02 21:23:01 12° 302° (WNW) 21:24:48 437.345
Cosmos 2499 05 Aug 21:22:16 21:27:37 17° 285° (WNW) 21:32:32 435.465 / 435.565
CUBEBUG 2 05 Aug 21:28:41 21:32:47 50° 72° (ENE) 21:37:03 437.445
CINEMA 3 05 Aug 21:30:23 21:34:33 75° 257° (WSW) 21:38:54 145.822/145.860
COMPASS 1 05 Aug 21:31:04 21:35:16 63° 259° (W) 21:39:30 437.405
DX 1 05 Aug 21:32:05 21:33:57 13° 59° (ENE) 21:35:59 434.975-435.025
ISS 05 Aug 21:39:51 21:43:06 64° 341° (NNW) 21:46:21 145.825
SEEDS 05 Aug 21:54:53 21:58:40 29° 266° (W) 22:02:25 437.485
PRISM 05 Aug 21:55:55 21:58:38 17° 298° (WNW) 22:01:13 437.425
DOVE 4 05 Aug 21:58:33 22:01:32 18° 270° (W) 22:04:25 437.250
ZACube-1 05 Aug 22:04:02 22:08:15 72° 74° (ENE) 22:12:38 437.345
VELOX 1 05 Aug 22:04:08 22:06:45 16° 61° (ENE) 22:09:32 145.980
CUTE 1.7 + AOD 2 05 Aug 22:06:34 22:09:44 19° 270° (W) 22:12:50 437.475
AAUSAT CUBESAT 2 05 Aug 22:08:48 22:12:33 30° 265° (W) 22:16:17 437.432
STRAND 1 05 Aug 22:08:54 22:12:16 17° 302° (WNW) 22:15:27 437.568
HUMSAT D 05 Aug 22:10:41 22:14:31 36° 69° (ENE) 22:18:27 437.325/437.525
CANX-2 05 Aug 22:16:38 22:19:06 14° 272° (W) 22:21:25 2200.000
50 SAT 05 Aug 22:17:00 22:19:55 21° 65° (ENE) 22:22:55 437.505
FUNcube-1 05 Aug 22:23:28 22:27:42 74° 258° (WSW) 22:32:05 145.935
Oscar 11 05 Aug 22:27:57 22:32:05 41° 263° (W) 22:36:14 145.826/435.025
UKube-1 05 Aug 22:29:48 22:33:48 39° 69° (ENE) 22:37:51 .
PHONESAT 2.4 05 Aug 22:30:37 22:33:19 21° 194° (SSW) 22:36:00 2401.200-2431.200
M-CUBED/EXP-1 PRIME 05 Aug 22:31:47 22:35:53 28° 98° (E) 22:39:55 437.505
ESTCUBE 1 05 Aug 22:34:24 22:37:53 23° 64° (ENE) 22:41:28 437.505/2401.250
BEESAT 2 05 Aug 22:35:02 22:38:12 22° 115° (ESE) 22:41:28 435.950
RS-15 05 Aug 22:35:48 22:46:48 78° 311° (NW) 22:58:19 29.354- 29.394
AIST 1 05 Aug 22:37:04 22:41:03 38° 74° (ENE) 22:45:02
UWE-3 05 Aug 22:39:28 22:43:27 38° 264° (W) 22:47:33 435.000/436.395/437.385
TIGRISAT 05 Aug 22:41:57 22:44:40 15° 88° (E) 22:47:33 435.000
ANTELSAT 05 Aug 22:45:40 22:48:44 17° 89° (E) 22:51:57 437.575/2403.000
DELFI C3 05 Aug 22:55:29 22:59:05 29° 265° (W) 23:02:40 145.870
AUBIESAT-1 05 Aug 22:56:04 23:00:34 41° 102° (ESE) 23:04:53 437.475
CUBEBUG 1 05 Aug 23:00:10 23:03:58 31° 67° (ENE) 23:07:49 437.445
AISAT 05 Aug 23:01:05 23:05:22 55° 72° (ENE) 23:09:41 437.250
DX 1 05 Aug 23:05:17 23:09:37 84° 253° (WSW) 23:14:00 434.975-435.025
AIST 2 05 Aug 23:05:29 23:06:38 11° 110° (ESE) 23:08:02 435.215
BEESAT 3 05 Aug 23:06:39 23:10:38 56° 123° (ESE) 23:14:41 437.485
CUBEBUG 2 05 Aug 23:06:55 23:09:51 17° 271° (W) 23:12:44 437.445
HO-68 05 Aug 23:12:09 23:14:24 11° 280° (W) 23:16:07 435.675
Cosmos 2491 05 Aug 23:13:04 23:21:44 64° 75° (ENE) 23:30:24 435.465 / 435.565
ISS 05 Aug 23:16:48 23:19:52 36° 360° (N) 23:22:56 145.825
SPROUT 05 Aug 23:18:11 23:20:47 16° 62° (ENE) 23:23:32 437.525
DUCHIFAT 1 05 Aug 23:18:37 23:20:21 12° 87° (E) 23:22:17 145.980
NANOSAT C BR1 05 Aug 23:24:25 23:26:47 15° 89° (E) 23:29:19 145.865
QB50P1 05 Aug 23:25:11 23:27:40 15° 89° (E) 23:30:19 145.935-145.965
UNISAT 6 05 Aug 23:36:02 23:40:38 51° 99° (E) 23:45:15 437.425
YUBILEINY 05 Aug 23:37:06 23:44:37 35° 84° (E) 23:52:21 435.215
VELOX 1 05 Aug 23:38:29 23:42:51 66° 258° (WSW) 23:47:15 145.980
ZACube-1 05 Aug 23:43:19 23:45:15 12° 274° (W) 23:47:01 437.345
HUMSAT D 05 Aug 23:46:58 23:50:23 23° 268° (W) 23:53:46 437.325/437.525
50 SAT 05 Aug 23:50:35 23:54:15 38° 263° (W) 23:57:58 437.505
BUGSAT 1 06 Aug 00:02:42 00:05:54 22° 93° (E) 00:09:13 437.445
M-CUBED/EXP-1 PRIME 06 Aug 00:06:13 00:10:45 41° 297° (WNW) 00:15:07 437.505
UKube-1 06 Aug 00:06:36 00:10:05 23° 267° (W) 00:13:30 .
POLYITAN 1 06 Aug 00:09:49 00:13:55 44° 98° (E) 00:18:03 437.675
ESTCUBE 1 06 Aug 00:10:09 00:14:31 45° 262° (W) 00:18:53 437.505/2401.250
BEESAT 2 06 Aug 00:12:01 00:16:01 47° 313° (NW) 00:20:02 435.950
AIST 1 06 Aug 00:15:13 00:18:30 21° 272° (W) 00:21:39
TIGRISAT 06 Aug 00:17:15 00:21:56 69° 286° (WNW) 00:26:37 435.000
ANTELSAT 06 Aug 00:21:17 00:25:57 61° 288° (WNW) 00:30:37 437.575/2403.000
O/OREOS (USA 219) 06 Aug 00:24:10 00:27:15 19° 102° (ESE) 00:30:29 437.305
POPSAT HIP 1 06 Aug 00:24:43 00:28:58 61° 101° (E) 00:33:13 437.405
BEESAT 06 Aug 00:30:18 00:32:28 13° 57° (ENE) 00:34:49 436.000
AUBIESAT-1 06 Aug 00:30:58 00:35:05 29° 300° (WNW) 00:39:02 437.475
QB50P2 06 Aug 00:33:42 00:38:00 79° 103° (ESE) 00:42:17 145.880/145.840
CUBEBUG 1 06 Aug 00:36:31 00:40:20 29° 265° (W) 00:44:06 437.445
AISAT 06 Aug 00:39:22 00:42:20 17° 270° (W) 00:45:09 437.250
AIST 2 06 Aug 00:40:19 00:44:35 87° 132° (SE) 00:48:53 435.215
TISAT 1 06 Aug 00:43:57 00:48:06 71° 74° (ENE) 00:52:18 437.305
BEESAT 3 06 Aug 00:45:33 00:48:53 23° 323° (NW) 00:52:12 437.485
SWISSCUBE 06 Aug 00:50:05 00:53:34 21° 62° (ENE) 00:57:10 437.505
RS-15 06 Aug 00:51:10 01:01:20 37° 341° (NNW) 01:11:52 29.354- 29.394
SPROUT 06 Aug 00:52:14 00:56:27 60° 259° (W) 01:00:42 437.525
DUCHIFAT 1 06 Aug 00:52:28 00:56:43 72° 286° (WNW) 01:00:57 145.980
ISS 06 Aug 00:53:23 00:56:38 62° 19° (NNE) 00:59:53 145.825
NANOSAT C BR1 06 Aug 00:58:51 01:03:04 60° 287° (WNW) 01:07:16 145.865
QB50P1 06 Aug 00:59:45 01:03:57 58° 287° (WNW) 01:08:09 145.935-145.965
Cosmos 2504 06 Aug 01:04:14 01:07:07 13° 73° (ENE) 01:10:35 435.465 / 435.565
Cosmos 2491 06 Aug 01:10:39 01:18:07 32° 277° (W) 01:25:22 435.465 / 435.565
ITUPSAT 1 06 Aug 01:12:51 01:16:57 29° 65° (ENE) 01:21:08 437.325
UNISAT 6 06 Aug 01:13:27 01:17:07 22° 296° (WNW) 01:20:41 437.425
YUBILEINY 06 Aug 01:32:29 01:41:06 59° 286° (WNW) 01:49:46 435.215
BUGSAT 1 06 Aug 01:37:43 01:41:30 36° 291° (WNW) 01:45:16 437.445
KKS-1 06 Aug 01:39:34 01:39:52 10° 56° (NE) 01:40:23 437.445
POLYITAN 1 06 Aug 01:46:16 01:49:35 22° 296° (WNW) 01:52:49 437.675
BEESAT 2 06 Aug 01:53:18 01:55:04 12° 335° (NNW) 01:56:44 435.950
TIGRISAT 06 Aug 01:56:47 01:57:54 11° 304° (NW) 01:58:46 435.000
POPSAT HIP 1 06 Aug 02:01:41 02:04:25 16° 298° (WNW) 02:07:00 437.405
O/OREOS (USA 219) 06 Aug 02:01:55 02:06:19 53° 300° (WNW) 02:10:47 437.305
BEESAT 06 Aug 02:04:50 02:09:38 85° 74° (ENE) 02:14:28 436.000
QB50P2 06 Aug 02:11:14 02:13:21 13° 300° (WNW) 02:15:18 145.880/145.840
AIST 2 06 Aug 02:20:40 02:23:45 19° 327° (NNW) 02:26:47 435.215
ITAMSAT 1 06 Aug 02:22:40 02:24:30 12° 85° (E) 02:26:38 435.822/435.867
TISAT 1 06 Aug 02:22:41 02:24:26 12° 273° (W) 02:26:00 437.305
SWISSCUBE 06 Aug 02:26:20 02:31:04 57° 259° (W) 02:35:49 437.505
Oscar 19 06 Aug 02:27:21 02:32:22 47° 99° (E) 02:37:24 437.125/150
Gurwin Techsat 1B 06 Aug 02:29:07 02:32:25 17° 87° (E) 02:35:55 435.225
ISS 06 Aug 02:30:03 02:32:54 28° 218° (SW) 02:35:45 145.825
STARS 06 Aug 02:33:03 02:36:12 20° 63° (ENE) 02:39:27 437.465
ITUPSAT 1 06 Aug 02:50:14 02:54:45 38° 263° (W) 02:59:14 437.325
Cosmos 2504 06 Aug 02:50:36 02:57:48 68° 94° (E) 03:05:38 435.465 / 435.565
MOZHAYETS 4 06 Aug 03:06:08 03:07:16 11° 57° (ENE) 03:08:36
RS-15 06 Aug 03:07:28 03:17:40 35° 15° (NNE) 03:28:23 29.354- 29.394
KKS-1 06 Aug 03:11:21 03:15:45 72° 74° (ENE) 03:20:12 437.445
YUBILEINY 06 Aug 03:35:38 03:40:25 15° 313° (NW) 03:44:46 435.215
BEESAT 06 Aug 03:46:04 03:48:13 12° 274° (W) 03:50:08 436.000
